User: anonymous
Location: Unspecified
(0.0000°N, 0.0000°E)
Time: 07:16:36
(UTC+02:00)
Language:

AO-40 - Orbit

View from above orbital plane
View from above orbital plane
View from above satellite
View from above satellite

Ground track
Ground track

The orbit data is extracted from the following two-line orbital elements,

1 26609U 00072B   14203.19548129 -.00000256  00000-0  00000+0 0  9916
2 26609 008.2536 042.6502 7937518 131.4298 329.3877 01.25586959 63015
Epoch (UTC): 22 July 2014 04:41:29
Eccentricity: 0.7937518
inclination: 8.2536°
perigee height: 1106 km
apogee height: 58714 km
right ascension of ascending node: 42.6502°
argument of perigee: 131.4298°
revolutions per day: 1.25586959
mean anomaly at epoch: 329.3877°
orbit number at epoch: 6301

The dashed part of the orbit path shows where the satellite is in the earth's shadow,  

DLR